| time (UTC) | temp C | wind direction | speed KPH | gust KPH | rain 1hr cm | rain 24hr cm | rain mn cm | humidity % | barometer mb |
| 20260505040405 | 15 | 224 | 6.4 | 14.5 | 0.00 | 0.00 | 0.00 | 61 | 1012.9 |
| 20260505035901 | 15 | 152 | 16.1 | 20.9 | 0.00 | 0.00 | 0.00 | 60 | 1012.9 |
| 20260505035357 | 14 | 190 | 4.8 | 14.5 | 0.00 | 0.00 | 0.00 | 62 | 1012.5 |
| 20260505034855 | 15 | 207 | 3.2 | 11.3 | 0.00 | 0.00 | 0.00 | 61 | 1012.6 |
| 20260505034351 | 15 | 190 | 3.2 | 12.9 | 0.00 | 0.00 | 0.00 | 61 | 1012.7 |
| 20260505033848 | 15 | 201 | 4.8 | 16.1 | 0.00 | 0.00 | 0.00 | 60 | 1012.8 |
| 20260505033345 | 15 | 198 | 6.4 | 12.9 | 0.00 | 0.00 | 0.00 | 62 | 1012.7 |
| 20260505032843 | 15 | 154 | 6.4 | 20.9 | 0.00 | 0.00 | 0.00 | 60 | 1012.7 |
| 20260505032339 | 15 | 169 | 6.4 | 12.9 | 0.00 | 0.00 | 0.00 | 61 | 1012.6 |
| 20260505031836 | 15 | 207 | 9.7 | 12.9 | 0.00 | 0.00 | 0.00 | 62 | 1012.8 |
| 20260505031333 | 15 | 145 | 3.2 | 16.1 | 0.00 | 0.00 | 0.00 | 61 | 1012.8 |
| 20260505030830 | 15 | 207 | 8.0 | 14.5 | 0.00 | 0.00 | 0.00 | 61 | 1012.9 |
| 20260505030326 | 15 | 208 | 8.0 | 11.3 | 0.00 | 0.00 | 0.00 | 62 | 1012.8 |
| 20260505025822 | 15 | 181 | 1.6 | 11.3 | 0.00 | 0.00 | 0.00 | 62 | 1012.9 |
| 20260505025320 | 15 | 214 | 6.4 | 17.7 | 0.00 | 0.00 | 0.00 | 61 | 1012.9 |
| 20260505024818 | 15 | 205 | 4.8 | 9.7 | 0.00 | 0.00 | 0.00 | 62 | 1012.9 |
| 20260505024315 | 15 | 182 | 8.0 | 14.5 | 0.00 | 0.00 | 0.00 | 63 | 1013.0 |
| 20260505023812 | 15 | 161 | 8.0 | 12.9 | 0.00 | 0.00 | 0.00 | 63 | 1013.1 |
| 20260505023309 | 14 | 228 | 9.7 | 12.9 | 0.00 | 0.00 | 0.00 | 64 | 1013.1 |
| 20260505022806 | 14 | 210 | 6.4 | 6.4 | 0.00 | 0.00 | 0.00 | 65 | 1013.0 |
| 20260505022304 | 14 | 194 | 8.0 | 12.9 | 0.00 | 0.00 | 0.00 | 65 | 1013.1 |
| 20260505021800 | 14 | 217 | 1.6 | 9.7 | 0.00 | 0.00 | 0.00 | 65 | 1013.0 |
| 20260505021257 | 14 | 199 | 3.2 | 4.8 | 0.00 | 0.00 | 0.00 | 67 | 1013.0 |
| 20260505020753 | 14 | 221 | 1.6 | 3.2 | 0.00 | 0.00 | 0.00 | 66 | 1012.9 |
| 20260505020248 | 14 | 226 | 1.6 | 6.4 | 0.00 | 0.00 | 0.00 | 65 | 1013.1 |
| 20260505015746 | 14 | 170 | 6.4 | 14.5 | 0.00 | 0.00 | 0.00 | 64 | 1013.0 |
| 20260505015242 | 14 | 210 | 3.2 | 4.8 | 0.00 | 0.00 | 0.00 | 67 | 1013.2 |
| 20260505014740 | 13 | 132 | 1.6 | 6.4 | 0.00 | 0.00 | 0.00 | 67 | 1013.1 |
| 20260505014237 | 14 | 250 | 1.6 | 6.4 | 0.00 | 0.00 | 0.00 | 67 | 1013.3 |
| 20260505013733 | 14 | 201 | 3.2 | 4.8 | 0.00 | 0.00 | 0.00 | 67 | 1013.1 |
| 20260505013231 | 14 | 208 | 3.2 | 9.7 | 0.00 | 0.00 | 0.00 | 66 | 1013.0 |
| 20260505012729 | 14 | 226 | 3.2 | 4.8 | 0.00 | 0.00 | 0.00 | 67 | 1013.1 |
| 20260505012226 | 14 | 211 | 1.6 | 4.8 | 0.00 | 0.00 | 0.00 | 66 | 1013.3 |
| 20260505011721 | 13 | 112 | 4.8 | 6.4 | 0.00 | 0.00 | 0.00 | 65 | 1013.0 |
| 20260505011219 | 13 | 179 | 3.2 | 3.2 | 0.00 | 0.00 | 0.00 | 68 | 1012.9 |
| 20260505010714 | 14 | 187 | 3.2 | 4.8 | 0.00 | 0.00 | 0.00 | 68 | 1013.0 |
| 20260505010211 | 14 | 171 | 1.6 | 4.8 | 0.00 | 0.00 | 0.00 | 67 | 1012.9 |
| 20260505005707 | 14 | 229 | 0.0 | 3.2 | 0.00 | 0.00 | 0.00 | 66 | 1012.6 |
| 20260505005205 | 15 | 216 | 1.6 | 9.7 | 0.00 | 0.00 | 0.00 | 64 | 1012.6 |
| 20260505004702 | 15 | 193 | 4.8 | 6.4 | 0.00 | 0.00 | 0.00 | 65 | 1012.6 |
| 20260505004158 | 15 | 203 | 1.6 | 3.2 | 0.00 | 0.00 | 0.00 | 65 | 1012.6 |
| 20260505003655 | 15 | 201 | 1.6 | 4.8 | 0.00 | 0.00 | 0.00 | 66 | 1012.8 |
| 20260505003153 | 15 | 228 | 1.6 | 4.8 | 0.00 | 0.00 | 0.00 | 66 | 1012.7 |
| 20260505002649 | 15 | 209 | 1.6 | 9.7 | 0.00 | 0.00 | 0.00 | 64 | 1012.6 |
| 20260505002147 | 15 | 125 | 1.6 | 4.8 | 0.00 | 0.00 | 0.00 | 65 | 1012.4 |
| 20260505001644 | 14 | 209 | 3.2 | 4.8 | 0.00 | 0.00 | 0.00 | 66 | 1012.6 |
| 20260505001141 | 15 | 161 | 4.8 | 6.4 | 0.00 | 0.00 | 0.00 | 65 | 1012.8 |
| 20260505000638 | 15 | 217 | 3.2 | 4.8 | 0.00 | 0.00 | 0.00 | 65 | 1012.5 |
| 20260505000137 | 15 | 214 | 4.8 | 9.7 | 0.00 | 0.00 | 0.00 | 63 | 1012.6 |
| 20260504235632 | 15 | 216 | 4.8 | 4.8 | 0.00 | 0.00 | 0.00 | 61 | 1012.4 |
| 20260504235129 | 15 | 195 | 1.6 | 3.2 | 0.00 | 0.00 | 0.00 | 64 | 1012.1 |
| 20260504234626 | 15 | 182 | 8.0 | 11.3 | 0.00 | 0.00 | 0.00 | 60 | 1012.3 |
| 20260504234123 | 15 | 155 | 3.2 | 9.7 | 0.00 | 0.00 | 0.00 | 61 | 1012.0 |
| 20260504233619 | 15 | 197 | 4.8 | 6.4 | 0.00 | 0.00 | 0.00 | 62 | 1012.4 |
| 20260504233115 | 16 | 172 | 4.8 | 6.4 | 0.00 | 0.00 | 0.00 | 61 | 1012.3 |
| 20260504232613 | 16 | 180 | 3.2 | 6.4 | 0.00 | 0.00 | 0.00 | 60 | 1012.0 |
| 20260504232110 | 16 | 219 | 3.2 | 16.1 | 0.00 | 0.00 | 0.00 | 60 | 1012.0 |
| 20260504231606 | 16 | 199 | 4.8 | 6.4 | 0.00 | 0.00 | 0.00 | 61 | 1012.0 |
| 20260504231102 | 16 | 170 | 4.8 | 12.9 | 0.00 | 0.00 | 0.00 | 59 | 1012.3 |
| 20260504230558 | 16 | 203 | 3.2 | 6.4 | 0.00 | 0.00 | 0.00 | 58 | 1012.3 |
| 20260504230058 | 16 | 242 | 9.7 | 12.9 | 0.00 | 0.00 | 0.00 | 57 | 1012.4 |
| 20260504225555 | 16 | 97 | 4.8 | 6.4 | 0.00 | 0.00 | 0.00 | 58 | 1012.5 |
| 20260504225052 | 16 | 174 | 8.0 | 17.7 | 0.00 | 0.00 | 0.00 | 58 | 1012.3 |
| 20260504224548 | 16 | 228 | 3.2 | 11.3 | 0.00 | 0.00 | 0.00 | 58 | 1012.5 |
| 20260504224046 | 16 | 231 | 20.9 | 38.6 | 0.00 | 0.00 | 0.00 | 58 | 1012.5 |
| 20260504223542 | 16 | 190 | 4.8 | 6.4 | 0.00 | 0.00 | 0.00 | 60 | 1012.1 |
| 20260504223038 | 16 | 141 | 6.4 | 6.4 | 0.00 | 0.00 | 0.00 | 58 | 1012.1 |
| 20260504222535 | 16 | 173 | 8.0 | 16.1 | 0.00 | 0.00 | 0.00 | 57 | 1012.1 |
| 20260504222032 | 17 | 89 | 4.8 | 17.7 | 0.00 | 0.00 | 0.00 | 56 | 1012.3 |
| 20260504221530 | 17 | 153 | 9.7 | 12.9 | 0.00 | 0.00 | 0.00 | 55 | 1012.5 |
| 20260504221026 | 17 | 188 | 6.4 | 11.3 | 0.00 | 0.00 | 0.00 | 58 | 1012.1 |
| 20260504220523 | 17 | 177 | 4.8 | 6.4 | 0.00 | 0.00 | 0.00 | 61 | 1012.3 |
| 20260504220020 | 17 | 226 | 0.0 | 20.9 | 0.00 | 0.00 | 0.00 | 58 | 1012.0 |
| 20260504215516 | 17 | 202 | 6.4 | 17.7 | 0.00 | 0.00 | 0.00 | 57 | 1012.1 |
| 20260504215014 | 18 | 288 | 9.7 | 14.5 | 0.00 | 0.00 | 0.00 | 56 | 1012.0 |
| 20260504214510 | 17 | 183 | 6.4 | 11.3 | 0.00 | 0.00 | 0.00 | 56 | 1012.3 |
| 20260504214006 | 18 | 219 | 11.3 | 17.7 | 0.00 | 0.00 | 0.00 | 54 | 1012.3 |
| 20260504213502 | 17 | 152 | 9.7 | 12.9 | 0.00 | 0.00 | 0.00 | 57 | 1012.1 |
| 20260504213000 | 17 | 207 | 6.4 | 12.9 | 0.00 | 0.00 | 0.00 | 55 | 1012.1 |
| 20260504212455 | 17 | 165 | 4.8 | 9.7 | 0.00 | 0.00 | 0.00 | 54 | 1012.1 |
| 20260504211953 | 17 | 247 | 1.6 | 12.9 | 0.00 | 0.00 | 0.00 | 56 | 1012.0 |
| 20260504211449 | 18 | 229 | 1.6 | 9.7 | 0.00 | 0.00 | 0.00 | 54 | 1012.0 |
| 20260504210947 | 18 | 240 | 0.0 | 12.9 | 0.00 | 0.00 | 0.00 | 52 | 1012.1 |
| 20260504210444 | 18 | 200 | 4.8 | 11.3 | 0.00 | 0.00 | 0.00 | 52 | 1012.0 |
| 20260504205941 | 18 | 131 | 6.4 | 9.7 | 0.00 | 0.00 | 0.00 | 49 | 1011.9 |
| 20260504205438 | 19 | 183 | 8.0 | 14.5 | 0.00 | 0.00 | 0.00 | 55 | 1011.8 |
| 20260504204936 | 18 | 263 | 4.8 | 12.9 | 0.00 | 0.00 | 0.00 | 55 | 1011.9 |
| 20260504204434 | 18 | 247 | 6.4 | 9.7 | 0.00 | 0.00 | 0.00 | 54 | 1012.0 |
| 20260504203933 | 17 | 221 | 9.7 | 14.5 | 0.00 | 0.00 | 0.00 | 55 | 1012.0 |
| 20260504203431 | 19 | 133 | 8.0 | 12.9 | 0.00 | 0.00 | 0.00 | 50 | 1011.8 |
| 20260504202927 | 19 | 166 | 9.7 | 14.5 | 0.00 | 0.00 | 0.00 | 49 | 1011.9 |
| 20260504202423 | 20 | 215 | 3.2 | 11.3 | 0.00 | 0.00 | 0.00 | 51 | 1011.9 |
| 20260504201920 | 18 | 121 | 6.4 | 14.5 | 0.00 | 0.00 | 0.00 | 51 | 1011.7 |
| 20260504201418 | 18 | 151 | 4.8 | 9.7 | 0.00 | 0.00 | 0.00 | 49 | 1011.8 |
| 20260504200915 | 18 | 191 | 6.4 | 6.4 | 0.00 | 0.00 | 0.00 | 50 | 1011.8 |
| 20260504200411 | 18 | 163 | 9.7 | 27.4 | 0.00 | 0.00 | 0.00 | 47 | 1011.7 |
| 20260504195908 | 19 | 178 | 6.4 | 11.3 | 0.00 | 0.00 | 0.00 | 52 | 1012.3 |
| 20260504195404 | 20 | 175 | 6.4 | 9.7 | 0.00 | 0.00 | 0.00 | 56 | 1012.0 |
| 20260504194901 | 20 | 97 | 8.0 | 11.3 | 0.00 | 0.00 | 0.00 | 51 | 1011.9 |
| 20260504194356 | 18 | 166 | 11.3 | 24.1 | 0.00 | 0.00 | 0.00 | 51 | 1012.1 |
| 20260504193853 | 18 | 220 | 6.4 | 17.7 | 0.00 | 0.00 | 0.00 | 54 | 1012.3 |
| 20260504193350 | 18 | 114 | 4.8 | 6.4 | 0.00 | 0.00 | 0.00 | 48 | 1012.4 |
| 20260504192849 | 18 | 75 | 4.8 | 16.1 | 0.00 | 0.00 | 0.00 | 53 | 1012.4 |
| 20260504192346 | 18 | 247 | 4.8 | 11.3 | 0.00 | 0.00 | 0.00 | 52 | 1012.7 |
| 20260504191844 | 18 | 220 | 3.2 | 6.4 | 0.00 | 0.00 | 0.00 | 52 | 1012.7 |
| 20260504191342 | 19 | 216 | 6.4 | 14.5 | 0.00 | 0.00 | 0.00 | 54 | 1012.6 |
| 20260504190837 | 19 | 235 | 4.8 | 6.4 | 0.00 | 0.00 | 0.00 | 55 | 1012.8 |
| 20260504190333 | 19 | 172 | 3.2 | 6.4 | 0.00 | 0.00 | 0.00 | 54 | 1012.5 |
| 20260504185830 | 18 | 212 | 4.8 | 9.7 | 0.00 | 0.00 | 0.00 | 56 | 1012.5 |
| 20260504185327 | 17 | 176 | 8.0 | 22.5 | 0.00 | 0.00 | 0.00 | 55 | 1012.6 |
| 20260504184823 | 17 | 178 | 6.4 | 20.9 | 0.00 | 0.00 | 0.00 | 56 | 1012.8 |
| 20260504184319 | 18 | 268 | 17.7 | 27.4 | 0.00 | 0.00 | 0.00 | 54 | 1012.7 |
| 20260504183815 | 18 | 220 | 6.4 | 6.4 | 0.00 | 0.00 | 0.00 | 54 | 1012.7 |
| 20260504183312 | 18 | 91 | 6.4 | 14.5 | 0.00 | 0.00 | 0.00 | 54 | 1012.8 |
| 20260504182810 | 17 | 204 | 6.4 | 12.9 | 0.00 | 0.00 | 0.00 | 58 | 1012.6 |
| 20260504182307 | 18 | 138 | 12.9 | 14.5 | 0.00 | 0.00 | 0.00 | 57 | 1012.8 |
| 20260504181804 | 17 | 230 | 3.2 | 20.9 | 0.00 | 0.00 | 0.00 | 59 | 1012.9 |
| 20260504181301 | 17 | 204 | 8.0 | 11.3 | 0.00 | 0.00 | 0.00 | 64 | 1012.8 |
| 20260504180801 | 17 | 206 | 4.8 | 16.1 | 0.00 | 0.00 | 0.00 | 63 | 1013.1 |
| 20260504180259 | 17 | 140 | 9.7 | 16.1 | 0.00 | 0.00 | 0.00 | 61 | 1013.1 |
| 20260504175756 | 17 | 159 | 11.3 | 12.9 | 0.00 | 0.00 | 0.00 | 57 | 1013.0 |
| 20260504175253 | 16 | 171 | 6.4 | 20.9 | 0.00 | 0.00 | 0.00 | 63 | 1013.2 |
| 20260504174751 | 16 | 207 | 3.2 | 9.7 | 0.00 | 0.00 | 0.00 | 60 | 1013.1 |
| 20260504174249 | 16 | 149 | 6.4 | 17.7 | 0.00 | 0.00 | 0.00 | 61 | 1013.4 |
| 20260504173745 | 16 | 235 | 6.4 | 16.1 | 0.00 | 0.00 | 0.00 | 62 | 1013.2 |
| 20260504173242 | 16 | 217 | 9.7 | 16.1 | 0.00 | 0.00 | 0.00 | 56 | 1013.2 |
| 20260504172738 | 17 | 140 | 6.4 | 11.3 | 0.00 | 0.00 | 0.00 | 56 | 1013.0 |
| 20260504172235 | 18 | 144 | 6.4 | 14.5 | 0.00 | 0.00 | 0.00 | 56 | 1013.2 |
| 20260504171731 | 18 | 216 | 3.2 | 9.7 | 0.00 | 0.00 | 0.00 | 56 | 1013.0 |
| 20260504171228 | 17 | 228 | 3.2 | 9.7 | 0.00 | 0.00 | 0.00 | 54 | 1013.6 |
| 20260504170725 | 16 | 89 | 3.2 | 16.1 | 0.00 | 0.00 | 0.00 | 57 | 1013.6 |
| 20260504170223 | 16 | 262 | 6.4 | 17.7 | 0.00 | 0.00 | 0.00 | 56 | 1013.4 |
| 20260504160141 | 16 | 158 | 12.9 | 14.5 | 0.00 | 0.00 | 0.00 | 54 | 1014.2 |
| 20260504151108 | 16 | 194 | 4.8 | 17.7 | 0.00 | 0.00 | 0.00 | 51 | 1014.6 |
| 20260504150606 | 16 | 71 | 3.2 | 4.8 | 0.00 | 0.00 | 0.00 | 47 | 1014.5 |
| 20260504141032 | 14 | 146 | 8.0 | 12.9 | 0.00 | 0.00 | 0.00 | 50 | 1014.3 |
| 20260504140528 | 14 | 206 | 3.2 | 4.8 | 0.00 | 0.00 | 0.00 | 51 | 1014.3 |
| 20260504130453 | 10 | 140 | 12.9 | 16.1 | 0.00 | 0.00 | 0.00 | 58 | 1014.9 |
| 20260504110340 | 7 | 209 | 4.8 | 14.5 | 0.00 | 0.00 | 0.00 | 69 | 1014.9 |
| 20260504100257 | 7 | 176 | 3.2 | 6.4 | 0.00 | 0.00 | 0.00 | 71 | 1015.0 |
| 20260504081650 | 7 | 211 | 1.6 | 6.4 | 0.00 | 0.00 | 0.00 | 63 | 1015.3 |
| 20260504081146 | 7 | 209 | 3.2 | 9.7 | 0.00 | 0.00 | 0.00 | 60 | 1015.3 |
| 20260504080643 | 7 | 170 | 4.8 | 4.8 | 0.00 | 0.00 | 0.00 | 58 | 1015.4 |
| 20260504080139 | 7 | 178 | 4.8 | 9.7 | 0.00 | 0.00 | 0.00 | 56 | 1015.3 |
| 20260504070108 | 7 | 174 | 3.2 | 3.2 | 0.00 | 0.00 | 0.00 | 57 | 1015.6 |
| 20260504050456 | 7 | 233 | 1.6 | 6.4 | 0.00 | 0.00 | 0.00 | 56 | 1015.8 |
| 20260504045953 | 7 | 196 | 1.6 | 4.8 | 0.00 | 0.00 | 0.00 | 55 | 1015.9 |
| 20260504045449 | 7 | 227 | 1.6 | 1.6 | 0.00 | 0.00 | 0.00 | 55 | 1015.8 |
| 20260504044945 | 7 | 234 | 0.0 | 3.2 | 0.00 | 0.00 | 0.00 | 57 | 1016.1 |
| 20260504044443 | 7 | 189 | 1.6 | 3.2 | 0.00 | 0.00 | 0.00 | 55 | 1016.2 |
| 20260504043940 | 7 | 165 | 0.0 | 4.8 | 0.00 | 0.00 | 0.00 | 53 | 1015.9 |
| 20260504043437 | 6 | 189 | 3.2 | 9.7 | 0.00 | 0.00 | 0.00 | 54 | 1016.1 |
| 20260504042934 | 6 | 224 | 1.6 | 3.2 | 0.00 | 0.00 | 0.00 | 57 | 1016.1 |
| 20260504042431 | 6 | 201 | 1.6 | 1.6 | 0.00 | 0.00 | 0.00 | 56 | 1015.8 |
| 20260504041927 | 6 | 224 | 1.6 | 3.2 | 0.00 | 0.00 | 0.00 | 57 | 1015.8 |
| 20260504041424 | 6 | 217 | 0.0 | 9.7 | 0.00 | 0.00 | 0.00 | 57 | 1016.2 |
| 20260504040920 | 6 | 190 | 1.6 | 3.2 | 0.00 | 0.00 | 0.00 | 59 | 1015.9 |
| 20260504040418 | 6 | 165 | 0.0 | 1.6 | 0.00 | 0.00 | 0.00 | 59 | 1015.9 |